Zurück zum Katalog

COSMOS 1275 DEB

LostPO
NORAD 42110·DEBRIS·🇷🇺 Russia

Gestartet Jun 4, 1981 von Plesetsk Cosmodrome

Loading…

Nächste Überflüge (nächste 24 Stunden)

TLE

VeraltetSource: Space-Track

Epoche: Nov 14, 2022, 09:47 UTC

1 42110U 81053PW  22318.40777315  .00003933  00000-0  16655-2 0  9998
2 42110  82.9170  15.7522 0019072 329.8925  30.1161 14.25166734957299

Verfolge COSMOS 1275 DEB in Echtzeit mit AllMySat

Download on the App Store